GW6425 Weather Reports


Display with metric or nautical units.
time (UTC)temp
F
wind
direction
speed
MPH
gust
MPH
rain 1hr
in
rain 24hr
in
rain mn
in
humidity
%
barometer
mb
20260504080157 101 0 1.0 2.0 0.00 0.00 0.00 47 1005.4
20260504070156 98 199 2.0 3.0 0.00 0.00 0.00 52 1006.6
20260504060159 95 218 2.0 4.0 0.00 0.00 0.00 58 1007.7
20260504050656 92 206 3.0 8.0 0.00 0.00 0.00 60 1008.3
20260504050156 92 192 4.0 7.0 0.00 0.00 0.00 60 1008.3
20260504045656 91 193 2.0 5.0 0.00 0.00 0.00 61 1008.3
20260504045157 91 198 4.0 7.0 0.00 0.00 0.00 60 1008.4
20260504044656 91 199 2.0 4.0 0.00 0.00 0.00 61 1008.3
20260504044156 90 220 3.0 7.0 0.00 0.00 0.00 62 1008.3
20260504043656 89 195 3.0 6.0 0.00 0.00 0.00 63 1008.4
20260504043156 89 146 3.0 6.0 0.00 0.00 0.00 65 1008.4
20260504042657 88 178 3.0 6.0 0.00 0.00 0.00 67 1008.5
20260504042157 88 224 2.0 4.0 0.00 0.00 0.00 70 1008.7
20260504041656 87 173 2.0 4.0 0.00 0.00 0.00 71 1008.7
20260504041158 87 157 3.0 4.0 0.00 0.00 0.00 72 1008.8
20260504040656 87 184 3.0 4.0 0.00 0.00 0.00 72 1008.8
20260504040156 87 152 3.0 6.0 0.00 0.00 0.00 71 1008.8
20260504035656 87 179 3.0 4.0 0.00 0.00 0.00 69 1008.8
20260504035156 87 163 3.0 4.0 0.00 0.00 0.00 70 1008.6
20260504034656 87 151 3.0 4.0 0.00 0.00 0.00 70 1008.7
20260504034156 87 169 4.0 5.0 0.00 0.00 0.00 70 1008.8
20260504033656 87 177 3.0 4.0 0.00 0.00 0.00 72 1008.9
20260504033157 87 136 2.0 3.0 0.00 0.00 0.00 73 1008.9
20260504032656 87 194 3.0 3.0 0.00 0.00 0.00 72 1008.7
20260504032159 87 158 4.0 4.0 0.00 0.00 0.00 73 1008.7
20260504031656 87 169 2.0 4.0 0.00 0.00 0.00 73 1008.7
20260504031156 87 156 2.0 3.0 0.00 0.00 0.00 74 1008.5
20260504030656 87 111 2.0 2.0 0.00 0.00 0.00 74 1008.4
20260504030156 86 167 3.0 3.0 0.00 0.00 0.00 73 1008.4
20260504025656 86 121 1.0 2.0 0.00 0.00 0.00 74 1008.3
20260504025156 86 135 3.0 4.0 0.00 0.00 0.00 75 1008.3
20260504024656 86 224 1.0 2.0 0.00 0.00 0.00 75 1008.3
20260504024156 86 161 3.0 4.0 0.00 0.00 0.00 75 1008.3
20260504023657 86 106 3.0 4.0 0.00 0.00 0.00 75 1008.2
20260504023156 86 134 1.0 2.0 0.00 0.00 0.00 75 1008.2
20260504022656 86 191 2.0 3.0 0.00 0.00 0.00 74 1007.9
20260504022157 86 94 2.0 2.0 0.00 0.00 0.00 73 1008.0
20260504021657 86 114 1.0 2.0 0.00 0.00 0.00 73 1007.8
20260504021156 85 143 1.0 2.0 0.00 0.00 0.00 74 1007.6
20260504020656 85 136 3.0 4.0 0.00 0.00 0.00 75 1007.5
20260504020158 85 7 2.0 2.0 0.00 0.00 0.00 75 1007.4
20260504015657 85 171 2.0 4.0 0.00 0.00 0.00 75 1007.4
20260504015156 85 194 2.0 3.0 0.00 0.00 0.00 74 1007.4
20260504014656 85 137 1.0 2.0 0.00 0.00 0.00 74 1007.2
20260504014156 85 102 2.0 2.0 0.00 0.00 0.00 75 1007.1
20260504013656 85 111 3.0 4.0 0.00 0.00 0.00 74 1007.2
20260504013157 85 99 2.0 2.0 0.00 0.00 0.00 74 1007.4
20260504012657 85 117 3.0 4.0 0.00 0.00 0.00 74 1007.4
20260504012156 84 121 2.0 2.0 0.00 0.00 0.00 74 1007.4
20260504011656 84 73 2.0 2.0 0.00 0.00 0.00 75 1007.3
20260504011159 84 85 2.0 3.0 0.00 0.00 0.00 75 1007.3
20260504010656 84 128 2.0 2.0 0.00 0.00 0.00 76 1007.2
20260504010156 84 142 2.0 2.0 0.00 0.00 0.00 76 1007.1
20260504005656 84 187 1.0 2.0 0.00 0.00 0.00 77 1007.1
20260504005156 84 98 1.0 2.0 0.00 0.00 0.00 77 1007.1
20260504004656 84 120 3.0 5.0 0.00 0.00 0.00 76 1007.0
20260504004157 84 106 3.0 5.0 0.00 0.00 0.00 76 1006.8
20260504003656 84 68 2.0 3.0 0.00 0.00 0.00 76 1006.7
20260504003156 84 109 3.0 4.0 0.00 0.00 0.00 76 1006.7
20260504002656 84 102 2.0 5.0 0.00 0.00 0.00 76 1006.7
20260504002156 84 89 3.0 6.0 0.00 0.00 0.00 75 1006.8
20260504001656 84 96 2.0 4.0 0.00 0.00 0.00 74 1006.7
20260504001156 84 112 4.0 7.0 0.00 0.00 0.00 74 1006.7
20260504000657 84 85 2.0 6.0 0.00 0.00 0.00 74 1006.8
20260504000156 84 108 3.0 5.0 0.00 0.00 0.00 73 1006.7
20260503235656 84 97 2.0 5.0 0.00 0.00 0.00 72 1006.9
20260503235156 84 110 4.0 6.0 0.00 0.00 0.00 72 1006.9
20260503234656 84 75 2.0 5.0 0.00 0.00 0.00 73 1007.0
20260503234157 84 141 2.0 4.0 0.00 0.00 0.00 74 1006.9
20260503233656 85 79 2.0 5.0 0.00 0.00 0.00 74 1006.7
20260503233157 84 114 2.0 4.0 0.00 0.00 0.00 73 1006.7
20260503232656 84 88 1.0 3.0 0.00 0.00 0.00 73 1006.7
20260503232156 84 24 2.0 3.0 0.00 0.00 0.00 74 1006.7
20260503231656 84 101 3.0 5.0 0.00 0.00 0.00 76 1006.8
20260503231156 84 98 2.0 4.0 0.00 0.00 0.00 76 1006.7
20260503230656 84 104 4.0 6.0 0.00 0.00 0.00 76 1006.6
20260503230156 83 84 2.0 3.0 0.00 0.00 0.00 75 1006.8
20260503225656 83 93 2.0 5.0 0.00 0.00 0.00 76 1006.6
20260503225156 83 53 2.0 4.0 0.00 0.00 0.00 77 1006.9
20260503224656 82 101 2.0 5.0 0.00 0.00 0.00 78 1007.0
20260503224156 82 104 2.0 5.0 0.00 0.00 0.00 79 1006.8
20260503223656 81 104 4.0 6.0 0.00 0.00 0.00 80 1006.8
20260503223156 81 91 3.0 6.0 0.00 0.00 0.00 81 1006.5
20260503222656 82 70 2.0 6.0 0.00 0.00 0.00 81 1006.2
20260503222156 83 71 3.0 6.0 0.00 0.00 0.00 81 1006.3
20260503221656 84 77 2.0 5.0 0.00 0.00 0.00 77 1006.3
20260503221156 84 74 3.0 5.0 0.00 0.00 0.00 74 1006.1
20260503220656 84 82 3.0 5.0 0.00 0.00 0.00 75 1005.9
20260503220157 85 83 2.0 4.0 0.00 0.00 0.00 74 1006.1
20260503215656 85 87 3.0 6.0 0.00 0.00 0.00 73 1006.4
20260503215156 86 111 4.0 9.0 0.00 0.00 0.00 73 1006.6
20260503214657 87 113 2.0 6.0 0.00 0.00 0.00 73 1006.6
20260503214156 87 214 1.0 2.0 0.00 0.00 0.00 74 1006.2
20260503213656 87 59 1.0 2.0 0.00 0.00 0.00 73 1006.2
20260503213156 87 47 1.0 2.0 0.00 0.00 0.00 71 1006.2
20260503212656 88 34 1.0 2.0 0.00 0.00 0.00 70 1006.1
20260503212156 88 14 1.0 2.0 0.00 0.00 0.00 69 1006.2
20260503211656 88 32 1.0 2.0 0.00 0.00 0.00 69 1006.2
20260503211156 88 51 1.0 2.0 0.00 0.00 0.00 68 1006.2
20260503210656 88 34 1.0 2.0 0.00 0.00 0.00 68 1006.4
20260503210156 88 57 1.0 2.0 0.00 0.00 0.00 67 1006.4
20260503205656 88 227 2.0 3.0 0.00 0.00 0.00 67 1006.5
20260503205157 88 305 1.0 2.0 0.00 0.00 0.00 67 1006.6
20260503204656 88 13 2.0 3.0 0.00 0.00 0.00 68 1006.6
20260503204156 88 0 1.0 2.0 0.00 0.00 0.00 67 1006.5
20260503203656 88 196 1.0 2.0 0.00 0.00 0.00 66 1006.4
20260503203157 88 73 0.0 1.0 0.00 0.00 0.00 66 1006.3
20260503202656 89 0 1.0 2.0 0.00 0.00 0.00 65 1006.1
20260503202157 89 10 1.0 2.0 0.00 0.00 0.00 64 1006.1
20260503201656 89 241 1.0 2.0 0.00 0.00 0.00 64 1006.0
20260503201157 89 67 1.0 2.0 0.00 0.00 0.00 63 1006.1
20260503200656 89 22 2.0 3.0 0.00 0.00 0.00 62 1006.2
20260503200156 89 161 1.0 2.0 0.00 0.00 0.00 61 1006.4
20260503195656 89 167 0.0 1.0 0.00 0.00 0.00 59 1006.8
20260503195157 89 226 0.0 2.0 0.00 0.00 0.00 59 1006.9
20260503194656 89 11 1.0 1.0 0.00 0.00 0.00 59 1006.8
20260503194156 89 43 0.0 1.0 0.00 0.00 0.00 59 1006.7
20260503193656 89 97 1.0 2.0 0.00 0.00 0.00 59 1006.7
20260503193156 89 81 0.0 1.0 0.00 0.00 0.00 59 1006.7
20260503192657 89 62 0.0 2.0 0.00 0.00 0.00 59 1006.9
20260503192156 89 209 1.0 3.0 0.00 0.00 0.00 59 1007.0
20260503191657 89 347 1.0 2.0 0.00 0.00 0.00 59 1007.1
20260503191156 89 40 1.0 2.0 0.00 0.00 0.00 59 1007.1
20260503190656 89 341 1.0 2.0 0.00 0.00 0.00 59 1007.0
20260503190156 89 24 1.0 2.0 0.00 0.00 0.00 59 1007.1
20260503185656 89 93 1.0 2.0 0.00 0.00 0.00 59 1007.2
20260503185156 89 32 1.0 3.0 0.00 0.00 0.00 60 1007.4
20260503184656 89 257 1.0 2.0 0.00 0.00 0.00 60 1007.6
20260503184157 89 159 1.0 2.0 0.00 0.00 0.00 61 1007.7
20260503183657 89 15 2.0 2.0 0.00 0.00 0.00 61 1007.6
20260503183156 89 196 1.0 3.0 0.00 0.00 0.00 61 1007.6
20260503182656 89 164 0.0 1.0 0.00 0.00 0.00 61 1007.5
20260503182156 89 239 0.0 1.0 0.00 0.00 0.00 61 1007.6
20260503181656 89 124 1.0 2.0 0.00 0.00 0.00 61 1007.5
20260503181156 90 299 1.0 1.0 0.00 0.00 0.00 61 1007.6
20260503180656 90 150 0.0 1.0 0.00 0.00 0.00 61 1007.6
20260503180156 90 205 1.0 2.0 0.00 0.00 0.00 60 1007.4
20260503175656 90 224 1.0 2.0 0.00 0.00 0.00 61 1007.3
20260503175156 90 315 2.0 4.0 0.00 0.00 0.00 61 1007.6
20260503174656 90 7 2.0 4.0 0.00 0.00 0.00 61 1007.6
20260503174156 90 269 1.0 2.0 0.00 0.00 0.00 63 1007.5
20260503173656 90 237 1.0 2.0 0.00 0.00 0.00 70 1007.7
20260503173156 90 344 1.0 3.0 0.00 0.00 0.00 71 1007.9
20260503172656 90 324 2.0 3.0 0.00 0.00 0.00 71 1007.7
20260503172156 90 191 2.0 2.0 0.00 0.00 0.00 71 1007.3
20260503171656 90 192 2.0 5.0 0.00 0.00 0.00 71 1007.0
20260503171157 90 204 2.0 4.0 0.00 0.00 0.00 71 1007.0
20260503170656 90 183 3.0 4.0 0.00 0.00 0.00 70 1007.1
20260503170157 90 190 2.0 3.0 0.00 0.00 0.00 70 1007.1
20260503160156 90 191 3.0 4.0 0.00 0.00 0.00 67 1006.5
20260503150713 91 186 3.0 4.0 0.00 0.00 0.00 68 1005.8
20260503150156 91 196 2.0 4.0 0.00 0.00 0.00 68 1005.6
20260503140157 92 170 2.0 5.0 0.00 0.00 0.00 65 1004.9
20260503131156 92 182 2.0 4.0 0.00 0.00 0.00 64 1004.1
20260503130656 92 191 2.0 4.0 0.00 0.00 0.00 65 1004.1
20260503130158 92 190 3.0 6.0 0.00 0.00 0.00 66 1004.1
20260503120157 91 196 2.0 4.0 0.00 0.00 0.00 67 1003.6
20260503110656 91 142 4.0 5.0 0.00 0.00 0.00 69 1003.0
20260503110157 92 173 2.0 4.0 0.00 0.00 0.00 69 1003.0
20260503100156 95 161 3.0 5.0 0.00 0.00 0.00 58 1003.0
20260503090156 98 161 3.0 6.0 0.00 0.00 0.00 52 1003.8
20260503081157 99 162 4.0 5.0 0.00 0.00 0.00 51 1004.2
20260503080656 100 120 3.0 6.0 0.00 0.00 0.00 50 1004.3